Zurück zum Katalog

SL-12 DEB

LostHEO
NORAD 41646·DEBRIS·🇷🇺 Russia

Gestartet Dec 25, 2008 von Baikonur Cosmodrome

Loading…

Nächste Überflüge (nächste 24 Stunden)

TLE

VeraltetSource: Space-Track

Epoche: Oct 23, 2016, 05:58 UTC

1 41646U 08067S   16297.24897363 -.00005643  00000-0 -38996+0 0  9993
2 41646  65.0211 341.3509 5393419  68.6926 339.3190  4.13576829  5709

Verfolge SL-12 DEB in Echtzeit mit AllMySat

Download on the App Store